Location: Bieujac
(44.5398°N, 0.1549°W)
Time: 12:44:52
(UTC+00:00)

NOSS 3-3 (A) - Pass Details

Date: 24 February 2020
Orbit: 833 x 1379 km, 63.4° (Epoch: 03 April)

Event Time Altitude Azimuth Distance (km) Brightness Sun altitude
Exits shadow 05:54:20 - 237° (WSW) 2,908 6.0 -10.2°
Reaches altitude 10° 05:55:21 10° 239° (WSW) 2,546 5.7 -10.0°
Maximum altitude 06:01:05 52° 316° (NW) 1,175 4.2 -9.0°
Drops below altitude 10° 06:07:36 10° 32° (NNE) 2,875 6.8 -7.9°
Sets 06:10:31 0° 37° (NE) 3,921 7.6 -7.4°
